����������;��������(kWh)
2019-09-02 00:00;83,9
2019-09-02 00:15;86,9
2019-09-02 00:30;82,95
2019-09-02 00:45;82,1
2019-09-02 01:00;82,95
2019-09-02 01:15;80,85
2019-09-02 01:30;81,4
2019-09-02 01:45;82,3
2019-09-02 02:00;82,2
2019-09-02 02:15;83,7
2019-09-02 02:30;84,35
2019-09-02 02:45;84,05
2019-09-02 03:00;82,85
2019-09-02 03:15;83,45
2019-09-02 03:30;84,6
2019-09-02 03:45;84,75
2019-09-02 04:00;86,8
2019-09-02 04:15;86,55
2019-09-02 04:30;85,75
2019-09-02 04:45;86,3
2019-09-02 05:00;85
2019-09-02 05:15;87,6
2019-09-02 05:30;88,5
2019-09-02 05:45;86,15
2019-09-02 06:00;79,65
2019-09-02 06:15;81,7
2019-09-02 06:30;79,4
2019-09-02 06:45;79,1
2019-09-02 07:00;80,75
2019-09-02 07:15;76,65
2019-09-02 07:30;80,05
2019-09-02 07:45;142,85
2019-09-02 08:00;153,4
2019-09-02 08:15;152,15
2019-09-02 08:30;127,1
2019-09-02 08:45;144,7
2019-09-02 09:00;147,75
2019-09-02 09:15;173,2
2019-09-02 09:30;159,9
2019-09-02 09:45;178,55
2019-09-02 10:00;176,1
2019-09-02 10:15;200,6
2019-09-02 10:30;198,05
2019-09-02 10:45;191
2019-09-02 11:00;217,95
2019-09-02 11:15;206,75
2019-09-02 11:30;219,8
2019-09-02 11:45;215,5
2019-09-02 12:00;213,7
2019-09-02 12:15;229,9
2019-09-02 12:30;207,55
2019-09-02 12:45;230,25
2019-09-02 13:00;230,6
2019-09-02 13:15;216,45
2019-09-02 13:30;240,05
2019-09-02 13:45;221,8
2019-09-02 14:00;229,05
2019-09-02 14:15;220,2
2019-09-02 14:30;224,05
2019-09-02 14:45;232
2019-09-02 15:00;221,1
2019-09-02 15:15;203,25
2019-09-02 15:30;225,35
2019-09-02 15:45;192,75
2019-09-02 16:00;202,55
2019-09-02 16:15;181,3
2019-09-02 16:30;187,95
2019-09-02 16:45;194,35
2019-09-02 17:00;171,9
2019-09-02 17:15;179,85
2019-09-02 17:30;179,95
2019-09-02 17:45;160,8
2019-09-02 18:00;171,1
2019-09-02 18:15;167,65
2019-09-02 18:30;181,9
2019-09-02 18:45;153,35
2019-09-02 19:00;165,25
2019-09-02 19:15;144,25
2019-09-02 19:30;136
2019-09-02 19:45;137,7
2019-09-02 20:00;137,35
2019-09-02 20:15;131,95
2019-09-02 20:30;131,65
2019-09-02 20:45;130,45
2019-09-02 21:00;130,5
2019-09-02 21:15;128,15
2019-09-02 21:30;125,1
2019-09-02 21:45;124,55
2019-09-02 22:00;112,85
2019-09-02 22:15;95
2019-09-02 22:30;95,05
2019-09-02 22:45;94
2019-09-02 23:00;100
2019-09-02 23:15;94,3
2019-09-02 23:30;96,25
2019-09-02 23:45;99,3
2019-09-03 00:00;87,9
2019-09-03 00:15;87,95
2019-09-03 00:30;90,65
2019-09-03 00:45;90,45
2019-09-03 01:00;90,05
2019-09-03 01:15;89,25
2019-09-03 01:30;88,65
2019-09-03 01:45;87,8
2019-09-03 02:00;86,35
2019-09-03 02:15;87,7
2019-09-03 02:30;88,55
2019-09-03 02:45;88,55
2019-09-03 03:00;89,3
2019-09-03 03:15;88,1
2019-09-03 03:30;88,7
2019-09-03 03:45;88
2019-09-03 04:00;84,25
2019-09-03 04:15;84,95
2019-09-03 04:30;84,85
2019-09-03 04:45;84,8
2019-09-03 05:00;84,9
2019-09-03 05:15;87,15
2019-09-03 05:30;87
2019-09-03 05:45;85,55
2019-09-03 06:00;83,4
2019-09-03 06:15;82
2019-09-03 06:30;82,4
2019-09-03 06:45;81,35
2019-09-03 07:00;82,85
2019-09-03 07:15;79,65
2019-09-03 07:30;84,4
2019-09-03 07:45;144,1
2019-09-03 08:00;146,7
2019-09-03 08:15;125,8
2019-09-03 08:30;123,8
2019-09-03 08:45;132,75
2019-09-03 09:00;140,2
2019-09-03 09:15;162,4
2019-09-03 09:30;196,05
2019-09-03 09:45;185,65
2019-09-03 10:00;202,05
2019-09-03 10:15;222,3
2019-09-03 10:30;216,7
2019-09-03 10:45;224,05
2019-09-03 11:00;216,55
2019-09-03 11:15;234,25
2019-09-03 11:30;219,7
2019-09-03 11:45;231,5
2019-09-03 12:00;233,45
2019-09-03 12:15;240,2
2019-09-03 12:30;245,3
2019-09-03 12:45;230
2019-09-03 13:00;231,15
2019-09-03 13:15;236,7
2019-09-03 13:30;222,55
2019-09-03 13:45;222,15
2019-09-03 14:00;228,65
2019-09-03 14:15;237,65
2019-09-03 14:30;217,25
2019-09-03 14:45;225,2
2019-09-03 15:00;207,3
2019-09-03 15:15;219,1
2019-09-03 15:30;199,65
2019-09-03 15:45;194,05
2019-09-03 16:00;192,15
2019-09-03 16:15;188,85
2019-09-03 16:30;185,1
2019-09-03 16:45;184
2019-09-03 17:00;177,4
2019-09-03 17:15;172
2019-09-03 17:30;173
2019-09-03 17:45;167,05
2019-09-03 18:00;162,85
2019-09-03 18:15;161,2
2019-09-03 18:30;161
2019-09-03 18:45;157,95
2019-09-03 19:00;158,75
2019-09-03 19:15;138,75
2019-09-03 19:30;136,55
2019-09-03 19:45;137,65
2019-09-03 20:00;134,8
2019-09-03 20:15;134
2019-09-03 20:30;133,75
2019-09-03 20:45;132,85
2019-09-03 21:00;127,95
2019-09-03 21:15;128,8
2019-09-03 21:30;126,9
2019-09-03 21:45;124,1
2019-09-03 22:00;115,85
2019-09-03 22:15;107,05
2019-09-03 22:30;105,65
2019-09-03 22:45;107,55
2019-09-03 23:00;107,45
2019-09-03 23:15;97,9
2019-09-03 23:30;102,75
2019-09-03 23:45;105,25
2019-09-04 00:00;96,05
2019-09-04 00:15;92,9
2019-09-04 00:30;93,45
2019-09-04 00:45;92,35
2019-09-04 01:00;91
2019-09-04 01:15;90,6
2019-09-04 01:30;90,95
2019-09-04 01:45;92,2
2019-09-04 02:00;91,65
2019-09-04 02:15;91,4
2019-09-04 02:30;85,95
2019-09-04 02:45;86,45
2019-09-04 03:00;85,2
2019-09-04 03:15;87,3
2019-09-04 03:30;87
2019-09-04 03:45;87,95
2019-09-04 04:00;88
2019-09-04 04:15;88,05
2019-09-04 04:30;89
2019-09-04 04:45;88,2
2019-09-04 05:00;85,45
2019-09-04 05:15;89,8
2019-09-04 05:30;89,45
2019-09-04 05:45;88,1
2019-09-04 06:00;86,95
2019-09-04 06:15;83,95
2019-09-04 06:30;85,8
2019-09-04 06:45;83
2019-09-04 07:00;84,6
2019-09-04 07:15;82,95
2019-09-04 07:30;85,65
2019-09-04 07:45;147,1
2019-09-04 08:00;154,5
2019-09-04 08:15;134,45
2019-09-04 08:30;122,25
2019-09-04 08:45;129,6
2019-09-04 09:00;141,8
2019-09-04 09:15;148,6
2019-09-04 09:30;167,8
2019-09-04 09:45;173,25
2019-09-04 10:00;179,85
2019-09-04 10:15;209,4
2019-09-04 10:30;201,45
2019-09-04 10:45;211,15
2019-09-04 11:00;217,95
2019-09-04 11:15;205,55
2019-09-04 11:30;226,3
2019-09-04 11:45;217,6
2019-09-04 12:00;223,35
2019-09-04 12:15;213,6
2019-09-04 12:30;220,85
2019-09-04 12:45;219,6
2019-09-04 13:00;220,4
2019-09-04 13:15;221,3
2019-09-04 13:30;222,65
2019-09-04 13:45;225,45
2019-09-04 14:00;224,3
2019-09-04 14:15;221,75
2019-09-04 14:30;220,45
2019-09-04 14:45;217,05
2019-09-04 15:00;216,9
2019-09-04 15:15;211,85
2019-09-04 15:30;205,65
2019-09-04 15:45;201,55
2019-09-04 16:00;197,85
2019-09-04 16:15;193
2019-09-04 16:30;188,15
2019-09-04 16:45;184,9
2019-09-04 17:00;183,8
2019-09-04 17:15;182,35
2019-09-04 17:30;177,7
2019-09-04 17:45;174,15
2019-09-04 18:00;168,65
2019-09-04 18:15;166,15
2019-09-04 18:30;163,6
2019-09-04 18:45;161,95
2019-09-04 19:00;162
2019-09-04 19:15;138,45
2019-09-04 19:30;135,9
2019-09-04 19:45;132,9
2019-09-04 20:00;124,1
2019-09-04 20:15;123,1
2019-09-04 20:30;123,2
2019-09-04 20:45;120,7
2019-09-04 21:00;121,6
2019-09-04 21:15;118,05
2019-09-04 21:30;118,85
2019-09-04 21:45;111,2
2019-09-04 22:00;103,05
2019-09-04 22:15;98,25
2019-09-04 22:30;94,95
2019-09-04 22:45;97,75
2019-09-04 23:00;103,7
2019-09-04 23:15;103,55
2019-09-04 23:30;103,65
2019-09-04 23:45;109,15
2019-09-05 00:00;96,9
2019-09-05 00:15;96,3
2019-09-05 00:30;94,3
2019-09-05 00:45;95,3
2019-09-05 01:00;93,8
2019-09-05 01:15;95,55
2019-09-05 01:30;91,8
2019-09-05 01:45;93,45
2019-09-05 02:00;90,4
2019-09-05 02:15;92,15
2019-09-05 02:30;89,45
2019-09-05 02:45;86,1
2019-09-05 03:00;87,35
2019-09-05 03:15;87,4
2019-09-05 03:30;88,4
2019-09-05 03:45;86,8
2019-09-05 04:00;87,45
2019-09-05 04:15;87,75
2019-09-05 04:30;86,65
2019-09-05 04:45;88,9
2019-09-05 05:00;85,6
2019-09-05 05:15;90,75
2019-09-05 05:30;86,85
2019-09-05 05:45;90,3
2019-09-05 06:00;85,75
2019-09-05 06:15;84,9
2019-09-05 06:30;84,5
2019-09-05 06:45;92
2019-09-05 07:00;94,1
2019-09-05 07:15;94,15
2019-09-05 07:30;96,55
2019-09-05 07:45;156,2
2019-09-05 08:00;156,3
2019-09-05 08:15;132,05
2019-09-05 08:30;140,55
2019-09-05 08:45;142,15
2019-09-05 09:00;156,35
2019-09-05 09:15;168,6
2019-09-05 09:30;166,25
2019-09-05 09:45;183,7
2019-09-05 10:00;181,05
2019-09-05 10:15;193,55
2019-09-05 10:30;200,9
2019-09-05 10:45;198,65
2019-09-05 11:00;213,55
2019-09-05 11:15;226,5
2019-09-05 11:30;221,3
2019-09-05 11:45;231,25
2019-09-05 12:00;232,8
2019-09-05 12:15;224,4
2019-09-05 12:30;245,2
2019-09-05 12:45;229,45
2019-09-05 13:00;228,05
2019-09-05 13:15;227,75
2019-09-05 13:30;218,35
2019-09-05 13:45;232,6
2019-09-05 14:00;220,95
2019-09-05 14:15;213,75
2019-09-05 14:30;214,8
2019-09-05 14:45;204,5
2019-09-05 15:00;207,8
2019-09-05 15:15;201,8
2019-09-05 15:30;188,15
2019-09-05 15:45;196,45
2019-09-05 16:00;188
2019-09-05 16:15;173,9
2019-09-05 16:30;180,35
2019-09-05 16:45;172,6
2019-09-05 17:00;160,15
2019-09-05 17:15;161,3
2019-09-05 17:30;158,85
2019-09-05 17:45;147,95
2019-09-05 18:00;148,55
2019-09-05 18:15;150,65
2019-09-05 18:30;137,3
2019-09-05 18:45;137
2019-09-05 19:00;144,2
2019-09-05 19:15;125,4
2019-09-05 19:30;123,5
2019-09-05 19:45;134,45
2019-09-05 20:00;135,15
2019-09-05 20:15;130,55
2019-09-05 20:30;120,15
2019-09-05 20:45;119,05
2019-09-05 21:00;119,15
2019-09-05 21:15;116,65
2019-09-05 21:30;114,35
2019-09-05 21:45;110,4
2019-09-05 22:00;100,4
2019-09-05 22:15;93,95
2019-09-05 22:30;92,15
2019-09-05 22:45;93,2
2019-09-05 23:00;97,85
2019-09-05 23:15;96,5
2019-09-05 23:30;97,55
2019-09-05 23:45;101,5
2019-09-06 00:00;90,95
2019-09-06 00:15;88,95
2019-09-06 00:30;91,4
2019-09-06 00:45;89,9
2019-09-06 01:00;90,8
2019-09-06 01:15;89,2
2019-09-06 01:30;88,9
2019-09-06 01:45;89,45
2019-09-06 02:00;88,65
2019-09-06 02:15;90,95
2019-09-06 02:30;84,75
2019-09-06 02:45;84,1
2019-09-06 03:00;85
2019-09-06 03:15;82,55
2019-09-06 03:30;85,5
2019-09-06 03:45;85,3
2019-09-06 04:00;85,95
2019-09-06 04:15;86,9
2019-09-06 04:30;87,35
2019-09-06 04:45;85,7
2019-09-06 05:00;85,05
2019-09-06 05:15;85,9
2019-09-06 05:30;85,8
2019-09-06 05:45;87
2019-09-06 06:00;83,75
2019-09-06 06:15;81,7
2019-09-06 06:30;83,4
2019-09-06 06:45;80,25
2019-09-06 07:00;81,4
2019-09-06 07:15;86,1
2019-09-06 07:30;92,95
2019-09-06 07:45;152,95
2019-09-06 08:00;153,15
2019-09-06 08:15;125,2
2019-09-06 08:30;134,85
2019-09-06 08:45;126,75
2019-09-06 09:00;147,55
2019-09-06 09:15;160,6
2019-09-06 09:30;172,2
2019-09-06 09:45;189,55
2019-09-06 10:00;176,35
2019-09-06 10:15;191,25
2019-09-06 10:30;197,8
2019-09-06 10:45;193,1
2019-09-06 11:00;210,75
2019-09-06 11:15;204,1
2019-09-06 11:30;218,35
2019-09-06 11:45;228,15
2019-09-06 12:00;227,5
2019-09-06 12:15;228,4
2019-09-06 12:30;224,7
2019-09-06 12:45;219,9
2019-09-06 13:00;219,1
2019-09-06 13:15;226,9
2019-09-06 13:30;215,4
2019-09-06 13:45;210,2
2019-09-06 14:00;216,95
2019-09-06 14:15;216,2
2019-09-06 14:30;214,5
2019-09-06 14:45;214,15
2019-09-06 15:00;208,45
2019-09-06 15:15;201,65
2019-09-06 15:30;201,1
2019-09-06 15:45;195,1
2019-09-06 16:00;187,5
2019-09-06 16:15;181,45
2019-09-06 16:30;179,95
2019-09-06 16:45;181,75
2019-09-06 17:00;176,4
2019-09-06 17:15;167,95
2019-09-06 17:30;162,9
2019-09-06 17:45;157,85
2019-09-06 18:00;154,65
2019-09-06 18:15;150,3
2019-09-06 18:30;145,7
2019-09-06 18:45;147,6
2019-09-06 19:00;146,9
2019-09-06 19:15;146,3
2019-09-06 19:30;148,55
2019-09-06 19:45;150,65
2019-09-06 20:00;153,75
2019-09-06 20:15;150,6
2019-09-06 20:30;143,5
2019-09-06 20:45;146,35
2019-09-06 21:00;135,1
2019-09-06 21:15;141,7
2019-09-06 21:30;139,7
2019-09-06 21:45;125,6
2019-09-06 22:00;109,5
2019-09-06 22:15;110,3
2019-09-06 22:30;113,9
2019-09-06 22:45;115,8
2019-09-06 23:00;110,75
2019-09-06 23:15;115,15
2019-09-06 23:30;117,9
2019-09-06 23:45;124,85
2019-09-07 00:00;112,7
2019-09-07 00:15;112,45
2019-09-07 00:30;111,95
2019-09-07 00:45;103,85
2019-09-07 01:00;105,85
2019-09-07 01:15;111,2
2019-09-07 01:30;106,55
2019-09-07 01:45;101,05
2019-09-07 02:00;109,5
2019-09-07 02:15;109,3
2019-09-07 02:30;102,9
2019-09-07 02:45;100,75
2019-09-07 03:00;107,55
2019-09-07 03:15;106,75
2019-09-07 03:30;98,55
2019-09-07 03:45;100,5
2019-09-07 04:00;107,9
2019-09-07 04:15;105,45
2019-09-07 04:30;96,2
2019-09-07 04:45;104,5
2019-09-07 05:00;106,65
2019-09-07 05:15;101,55
2019-09-07 05:30;96,9
2019-09-07 05:45;107,7
2019-09-07 06:00;104,35
2019-09-07 06:15;95,75
2019-09-07 06:30;98,3
2019-09-07 06:45;103,75
2019-09-07 07:00;100,7
2019-09-07 07:15;88,6
2019-09-07 07:30;94,1
2019-09-07 07:45;97,7
2019-09-07 08:00;91,3
2019-09-07 08:15;90,4
2019-09-07 08:30;99,55
2019-09-07 08:45;101,3
2019-09-07 09:00;97,15
2019-09-07 09:15;101,05
2019-09-07 09:30;110,9
2019-09-07 09:45;108,25
2019-09-07 10:00;105,45
2019-09-07 10:15;105,9
2019-09-07 10:30;114,85
2019-09-07 10:45;109,8
2019-09-07 11:00;105,75
2019-09-07 11:15;107,9
2019-09-07 11:30;114,35
2019-09-07 11:45;113,6
2019-09-07 12:00;109,5
2019-09-07 12:15;111,95
2019-09-07 12:30;111,7
2019-09-07 12:45;122
2019-09-07 13:00;123,8
2019-09-07 13:15;120,2
2019-09-07 13:30;118,45
2019-09-07 13:45;119,15
2019-09-07 14:00;116,15
2019-09-07 14:15;113,95
2019-09-07 14:30;106,8
2019-09-07 14:45;118,85
2019-09-07 15:00;117,8
2019-09-07 15:15;107,75
2019-09-07 15:30;114
2019-09-07 15:45;114,8
2019-09-07 16:00;112,65
2019-09-07 16:15;106,95
2019-09-07 16:30;105
2019-09-07 16:45;111,8
2019-09-07 17:00;109,2
2019-09-07 17:15;98,95
2019-09-07 17:30;111,95
2019-09-07 17:45;111,15
2019-09-07 18:00;102,65
2019-09-07 18:15;104,05
2019-09-07 18:30;108,25
2019-09-07 18:45;114,7
2019-09-07 19:00;115,6
2019-09-07 19:15;116,2
2019-09-07 19:30;103,45
2019-09-07 19:45;113,45
2019-09-07 20:00;108,3
2019-09-07 20:15;102,65
2019-09-07 20:30;112,55
2019-09-07 20:45;116,7
2019-09-07 21:00;104,15
2019-09-07 21:15;111,35
2019-09-07 21:30;116,3
2019-09-07 21:45;101,85
2019-09-07 22:00;105,9
2019-09-07 22:15;105,05
2019-09-07 22:30;110,5
2019-09-07 22:45;105,9
2019-09-07 23:00;111,9
2019-09-07 23:15;96,05
2019-09-07 23:30;116,75
2019-09-07 23:45;123,6
2019-09-08 00:00;108,35
2019-09-08 00:15;104,35
2019-09-08 00:30;96,75
2019-09-08 00:45;107,6
2019-09-08 01:00;103,15
2019-09-08 01:15;95,2
2019-09-08 01:30;103,7
2019-09-08 01:45;104,15
2019-09-08 02:00;92,85
2019-09-08 02:15;103,5
2019-09-08 02:30;102,2
2019-09-08 02:45;107,6
2019-09-08 03:00;99,85
2019-09-08 03:15;100,75
2019-09-08 03:30;91,9
2019-09-08 03:45;95,25
2019-09-08 04:00;102,75
2019-09-08 04:15;96,9
2019-09-08 04:30;96
2019-09-08 04:45;103,8
2019-09-08 05:00;96,9
2019-09-08 05:15;94,2
2019-09-08 05:30;103,3
2019-09-08 05:45;97,15
2019-09-08 06:00;104,1
2019-09-08 06:15;103,55
2019-09-08 06:30;89,9
2019-09-08 06:45;98,2
2019-09-08 07:00;94,1
2019-09-08 07:15;99,1
2019-09-08 07:30;95,2
2019-09-08 07:45;87,4
2019-09-08 08:00;84,25
2019-09-08 08:15;93,35
2019-09-08 08:30;88,1
2019-09-08 08:45;91,1
2019-09-08 09:00;96,1
2019-09-08 09:15;94,85
2019-09-08 09:30;88,9
2019-09-08 09:45;107,65
2019-09-08 10:00;103,25
2019-09-08 10:15;107,8
2019-09-08 10:30;94,95
2019-09-08 10:45;104
2019-09-08 11:00;97,6
2019-09-08 11:15;88,45
2019-09-08 11:30;97,7
2019-09-08 11:45;102,05
2019-09-08 12:00;99
2019-09-08 12:15;99,1
2019-09-08 12:30;105,15
2019-09-08 12:45;99,35
2019-09-08 13:00;93,95
2019-09-08 13:15;108,4
2019-09-08 13:30;106,85
2019-09-08 13:45;108,2
2019-09-08 14:00;113,1
2019-09-08 14:15;107,4
2019-09-08 14:30;107,95
2019-09-08 14:45;99,15
2019-09-08 15:00;106,55
2019-09-08 15:15;105,15
2019-09-08 15:30;99,95
2019-09-08 15:45;107,9
2019-09-08 16:00;110,3
2019-09-08 16:15;100,05
2019-09-08 16:30;99,55
2019-09-08 16:45;103,2
2019-09-08 17:00;102,9
2019-09-08 17:15;103,65
2019-09-08 17:30;104,05
2019-09-08 17:45;106,15
2019-09-08 18:00;104,9
2019-09-08 18:15;95,8
2019-09-08 18:30;100
2019-09-08 18:45;105,05
2019-09-08 19:00;101,55
2019-09-08 19:15;103,6
2019-09-08 19:30;112,3
2019-09-08 19:45;106,65
2019-09-08 20:00;100,95
2019-09-08 20:15;114,55
2019-09-08 20:30;110,2
2019-09-08 20:45;105,35
2019-09-08 21:00;117,55
2019-09-08 21:15;118,5
2019-09-08 21:30;106,05
2019-09-08 21:45;114,85
2019-09-08 22:00;96,05
2019-09-08 22:15;99,5
2019-09-08 22:30;104,35
2019-09-08 22:45;94,95
2019-09-08 23:00;99,9
2019-09-08 23:15;103,95
2019-09-08 23:30;99
2019-09-08 23:45;104,9

